Printer-friendly version

IAU Minor Planet Center

Minor Planet Center

MPEC 2006-Q65 : 2006 QY110

The following Minor Planet Electronic Circular may be linked-to from your own Web pages, but must not otherwise be redistributed electronically.


Read MPEC 2006-Q64 Read MPEC 2006-Q66


M.P.E.C. 2006-Q65                                Issued 2006 Aug. 31, 10:48 UT

     The Minor Planet Electronic Circulars contain information on unusual
         minor planets and routine data on comets.  They are published
   on behalf of Commission 20 of the International Astronomical Union by the
          Minor Planet Center, Smithsonian Astrophysical Observatory,
                          Cambridge, MA 02138, U.S.A.

                  Supported in part by the Brinson Foundation
                  Supported in part by the TABASGO Foundation
             Prepared using the Tamkin Foundation Computer Network

                              MPC@CFA.HARVARD.EDU
          URL http://cfa-www.harvard.edu/iau/mpc.html  ISSN 1523-6714

                                  2006 QY110

Observations:
     K06QB0Y* C2006 08 30.36192 04 12 23.75 +29 18 58.3          19.1   EQ065704
     K06QB0Y  C2006 08 30.37302 04 12 28.30 +29 19 06.3          19.2   EQ065704
     K06QB0Y  C2006 08 30.38416 04 12 33.14 +29 19 13.9          19.6   EQ065704
     K06QB0Y  C2006 08 30.39550 04 12 37.92 +29 19 20.3          19.4   EQ065704
     K06QB0Y  C2006 08 31.10971 04 17 42.93 +29 26 02.0                 EQ065204
     K06QB0Y  C2006 08 31.11451 04 17 44.97 +29 26 04.6          19.2 R EQ065204
     K06QB0Y  C2006 08 31.37207 04 19 36.35 +29 28 20.4          19.2 R EQ065734
     K06QB0Y  C2006 08 31.37438 04 19 37.27 +29 28 22.0          19.1 R EQ065734
     K06QB0Y  C2006 08 31.37591 04 19 37.96 +29 28 22.9          18.7 R EQ065734
     K06QB0Y 5C2006 08 31.41568 04 19 55.29 +29 28 44.0          19.0 R EQ065673
     K06QB0Y 5C2006 08 31.42182 04 19 57.92 +29 28 47.3                 EQ065673
     K06QB0Y 5C2006 08 31.42749 04 20 00.36 +29 28 49.9                 EQ065673
     K06QB0Y 5C2006 08 31.43605 04 20 04.02 +29 28 54.8                 EQ065673

Observer details:
204 Schiaparelli Observatory.  Observer L. Buzzi.  0.60-m f/4.64 reflector
    + CCD.
673 Table Mountain Observatory, Wrightwood.  Observer J. Young.  0.61-m f/16
    Cassegrain + CCD.
704 Lincoln Laboratory ETS, New Mexico.  Observers M. Bezpalko, L. Manguso,
    D. Torres, R. Kracke, H. Love, G. Spitz, J. Kistler.  Measurers J. Stuart,
    J. Kommers.  1.0-m f/2.15 reflector + CCD.
734 Farpoint Observatory.  Observer D. Tibbets.  Measurer G. Hug.  0.7-m
    reflector + CCD.

Orbital elements:
2006 QY110                                          PHA, Earth MOID = 0.0325 AU
Epoch 2006 Sept. 22.0 TT = JDT 2454000.5                MPC
M 335.84258              (2000.0)            P               Q
n   0.56070269     Peri.  225.33873     +0.08689057     -0.99425660
a   1.4565128      Node   219.80154     +0.93940552     +0.10265113
e   0.4379274      Incl.    5.60135     +0.33161319     -0.03027478
P   1.76           H   18.3           G   0.15           U   9
Residuals in seconds of arc
060830 704  0.3-  0.6-    060831 204  0.0   0.6+    060831 673  0.0   0.3+
060830 704 (1.9-  0.4+)   060831 734  0.6+  0.1-    060831 673  0.1+  0.2-
060830 704  0.1+  0.9+    060831 734  0.3-  0.2+    060831 673  0.1+  0.1+
060830 704  0.3+  0.2+    060831 734  0.2+  0.3+
060831 204  0.0   0.7+    060831 673  0.0   0.4+

Ephemeris:
2006 QY110               a,e,i = 1.46, 0.44, 6                   q = 0.8187
Date    TT    R. A. (2000) Decl.     Delta      r     Elong.  Phase     V
2006 08 23    03 24.04   +27 36.4    0.525    1.171    93.9    59.5    19.4
2006 09 02    04 31.48   +29 40.5    0.468    1.102    88.6    66.3    19.2
2006 09 12    05 50.08   +29 17.6    0.437    1.035    81.2    74.1    19.2
2006 09 22    07 10.10   +25 50.5    0.437    0.971    73.0    81.5    19.3
2006 10 02    08 21.18   +20 11.6    0.465    0.914    65.7    86.6    19.5
2006 10 12    09 20.20   +13 51.8    0.518    0.868    60.3    88.4    19.7
2006 10 22    10 09.39   +07 49.4    0.588    0.835    56.9    87.0    19.8
2006 11 01    10 51.99   +02 24.4    0.667    0.820    55.1    83.1    19.9
2006 11 11    11 30.45   -02 22.3    0.751    0.823    54.4    77.8    20.0
2006 11 21    12 06.19   -06 34.2    0.831    0.846    54.6    72.2    20.1
2006 12 01    12 39.83   -10 13.6    0.904    0.884    55.6    66.9    20.2
2006 12 11    13 11.61   -13 22.5    0.966    0.935    57.3    62.4    20.3
2006 12 21    13 41.57   -16 02.3    1.015    0.995    59.7    58.6    20.4
2006 12 31    14 09.63   -18 14.5    1.050    1.060    62.8    55.6    20.6
2007 01 10    14 35.67   -20 00.8    1.070    1.128    66.5    53.1    20.7
2007 01 20    14 59.52   -21 23.3    1.077    1.198    70.9    50.9    20.7
2007 01 30    15 20.88   -22 23.7    1.069    1.267    76.0    49.0    20.8
2007 02 09    15 39.46   -23 04.1    1.050    1.334    81.8    47.0    20.8
2007 02 19    15 54.84   -23 26.2    1.020    1.400    88.4    44.9    20.8
2007 03 01    16 06.44   -23 31.0    0.982    1.464    95.8    42.3    20.7
2007 03 11    16 13.70   -23 19.3    0.938    1.524   104.2    39.2    20.6
2007 03 21    16 15.90   -22 50.5    0.892    1.582   113.7    35.2    20.5
2007 03 31    16 12.46   -22 03.1    0.849    1.637   124.6    30.2    20.3
2007 04 10    16 03.19   -20 54.8    0.813    1.689   136.8    24.0    20.1
2007 04 20    15 48.61   -19 24.7    0.792    1.737   150.2    16.7    19.9
2007 04 30    15 30.44   -17 36.3    0.792    1.783   164.5     8.7    19.6
2007 05 10    15 11.33   -15 40.5    0.816    1.825   177.8     1.2    19.3
2007 05 20    14 53.99   -13 51.9    0.865    1.864   166.4     7.3    19.9
2007 05 30    14 40.42   -12 24.0    0.939    1.900   153.3    13.9    20.4
2007 06 09    14 31.45   -11 23.5    1.033    1.933   141.3    19.2    20.8
2007 06 19    14 26.98   -10 50.8    1.143    1.963   130.6    23.1    21.2
2007 06 29    14 26.57   -10 42.9    1.265    1.989   120.9    26.0    21.5
2007 07 09    14 29.54   -10 54.8    1.395    2.013   112.2    27.9    21.8
2007 07 19    14 35.31   -11 22.1    1.530    2.033   104.2    29.0    22.0
2007 07 29    14 43.39   -12 00.6    1.667    2.051    96.7    29.5    22.3

Timothy B. Spahr             (C) Copyright 2006 MPC           M.P.E.C. 2006-Q65

Read MPEC 2006-Q64 Read MPEC 2006-Q66


Our Web policy. Index to the CBAT/MPC/ICQ pages.


Valid HTML 4.01!